Stations météo

réclame
Mon MeteoGroup
Termoli, Italie (16232): Température de l'air & dewpoint: 14.10.2018 04:00:00 - 20.10.2018 04:00:00 (CEST)Termoli, Italie (16232): Vitesse du vent: 14.10.2018 04:00:00 - 20.10.2018 04:00:00 (CEST)Termoli, Italie (16232): Direction du vent: 14.10.2018 04:00:00 - 20.10.2018 04:00:00 (CEST)Termoli, Italie (16232): reduced air pressure: 14.10.2018 04:00:00 - 20.10.2018 04:00:00 (CEST)Termoli, Italie (16232): visibility: 14.10.2018 04:00:00 - 20.10.2018 04:00:00 (CEST)Termoli, Italie (16232): Ensoleillement: 14.10.2018 04:00:00 - 20.10.2018 04:00:00 (CEST)
Date & Time tt [°C] td [°C] ff [km/h] ff [knt] dd ppp [hPa] vv [km] sd [min]
20.10.2018 04:00:00 - - - - - - - -
20.10.2018 03:00:00 - - - - - - - -
20.10.2018 02:00:00 18,6 12,4 21 11 W 1018,8 15 -
20.10.2018 01:00:00 - - - - - - - -
20.10.2018 00:00:00 - - - - - - - -
19.10.2018 23:00:00 18,4 16,4 18 10 W 1018,8 8 -
19.10.2018 22:00:00 - - - - - - - -
19.10.2018 21:00:00 - - - - - - - -
19.10.2018 20:00:00 20,0 17,0 8 4 W 1017,5 9 -
19.10.2018 19:00:00 - - - - - - - -
19.10.2018 18:00:00 - - - - - - - -
19.10.2018 17:00:00 22,2 16,9 9 5 NW 1017,2 9 60
19.10.2018 16:00:00 - - - - - - - -
19.10.2018 15:00:00 - - - - - - - -
19.10.2018 14:00:00 22,2 16,0 15 8 NNW 1017,5 9 42
19.10.2018 13:00:00 - - - - - - - -
19.10.2018 12:00:00 - - - - - - - -
19.10.2018 11:00:00 21,2 15,3 11 6 NW 1017,5 10 60
19.10.2018 10:00:00 - - - - - - - -
19.10.2018 09:00:00 - - - - - - - -
19.10.2018 08:00:00 18,0 14,7 13 7 W 1016,3 12 0
19.10.2018 07:00:00 - - - - - - - -
19.10.2018 06:00:00 - - - - - - - -
19.10.2018 05:00:00 18,0 15,8 5 3 WSW 1016,3 10 -
19.10.2018 04:00:00 - - - - - - - -
19.10.2018 03:00:00 - - - - - - - -
19.10.2018 02:00:00 18,8 16,8 16 9 W 1016,2 15 -
19.10.2018 01:00:00 - - - - - - - -
19.10.2018 00:00:00 - - - - - - - -
18.10.2018 23:00:00 19,4 16,8 11 6 W 1016,2 15 -
18.10.2018 22:00:00 - - - - - - - -
18.10.2018 21:00:00 - - - - - - - -
18.10.2018 20:00:00 20,6 17,2 11 6 NNW 1015,2 15 -
18.10.2018 19:00:00 - - - - - - - -
18.10.2018 18:00:00 - - - - - - - -
18.10.2018 17:00:00 21,0 17,0 16 9 N 1014,6 10 60
18.10.2018 16:00:00 - - - - - - - -
18.10.2018 15:00:00 - - - - - - - -
18.10.2018 14:00:00 21,0 16,0 11 6 N 1015,2 15 60
18.10.2018 13:00:00 - - - - - - - -
18.10.2018 12:00:00 - - - - - - - -
18.10.2018 11:00:00 21,4 17,4 13 7 N 1016,0 10 54
18.10.2018 10:00:00 - - - - - - - -
18.10.2018 09:00:00 - - - - - - - -
18.10.2018 08:00:00 20,0 18,3 4 2 WNW 1015,2 12 0
18.10.2018 07:00:00 - - - - - - - -
18.10.2018 06:00:00 - - - - - - - -
18.10.2018 05:00:00 20,4 18,7 5 3 NNE 1015,1 10 -
18.10.2018 04:00:00 - - - - - - - -
18.10.2018 03:00:00 - - - - - - - -
18.10.2018 02:00:00 21,0 19,3 8 4 NNE 1016,1 10 -
18.10.2018 01:00:00 - - - - - - - -
18.10.2018 00:00:00 - - - - - - - -
17.10.2018 23:00:00 21,4 19,1 2 1 E 1016,7 10 -
17.10.2018 22:00:00 - - - - - - - -
17.10.2018 21:00:00 - - - - - - - -
17.10.2018 20:00:00 21,4 19,3 8 4 E 1016,3 10 -
17.10.2018 19:00:00 - - - - - - - -
17.10.2018 18:00:00 - - - - - - - -
17.10.2018 17:00:00 22,2 19,2 9 5 E 1016,2 10 0
17.10.2018 16:00:00 - - - - - - - -
17.10.2018 15:00:00 - - - - - - - -
17.10.2018 14:00:00 21,2 17,4 13 7 N 1017,3 8 48
17.10.2018 13:00:00 - - - - - - - -
17.10.2018 12:00:00 - - - - - - - -
17.10.2018 11:00:00 22,0 19,4 8 4 NNW 1018,2 6 42
17.10.2018 10:00:00 - - - - - - - -
17.10.2018 09:00:00 - - - - - - - -
17.10.2018 08:00:00 20,0 18,7 9 5 W 1017,8 4,0 0
17.10.2018 07:00:00 - - - - - - - -
17.10.2018 06:00:00 - - - - - - - -
17.10.2018 05:00:00 20,8 18,7 5 3 WNW 1017,6 10 -
17.10.2018 04:00:00 - - - - - - - -
17.10.2018 03:00:00 - - - - - - - -
17.10.2018 02:00:00 21,0 19,3 2 1 SE 1018,4 10 -
17.10.2018 01:00:00 - - - - - - - -
17.10.2018 00:00:00 - - - - - - - -
16.10.2018 23:00:00 20,6 19,2 2 1 W 1018,9 10 -
16.10.2018 22:00:00 - - - - - - - -
16.10.2018 21:00:00 - - - - - - - -
16.10.2018 20:00:00 20,8 19,3 5 3 WNW 1019,0 12 -
16.10.2018 19:00:00 - - - - - - - -
16.10.2018 18:00:00 - - - - - - - -
16.10.2018 17:00:00 21,2 19,5 9 5 NW 1018,6 10 0
16.10.2018 16:00:00 - - - - - - - -
16.10.2018 15:00:00 - - - - - - - -
16.10.2018 14:00:00 21,0 18,8 11 6 N 1018,9 8 0
16.10.2018 13:00:00 - - - - - - - -
16.10.2018 12:00:00 - - - - - - - -
16.10.2018 11:00:00 20,4 19,1 8 4 WNW 1019,2 8 0
16.10.2018 10:00:00 - - - - - - - -
16.10.2018 09:00:00 - - - - - - - -
16.10.2018 08:00:00 19,4 17,9 8 4 WNW 1018,2 9 -
16.10.2018 07:00:00 - - - - - - - -
16.10.2018 06:00:00 - - - - - - - -
16.10.2018 05:00:00 19,0 17,3 9 5 WNW 1018,2 8 -
16.10.2018 04:00:00 - - - - - - - -
16.10.2018 03:00:00 - - - - - - - -
16.10.2018 02:00:00 19,2 17,4 8 4 WNW 1018,4 9 -
16.10.2018 01:00:00 - - - - - - - -
16.10.2018 00:00:00 - - - - - - - -
15.10.2018 23:00:00 19,2 17,5 13 7 WNW 1018,5 8 -
15.10.2018 22:00:00 - - - - - - - -
15.10.2018 21:00:00 - - - - - - - -
15.10.2018 20:00:00 19,8 17,9 18 10 NW 1018,7 8 0
15.10.2018 19:00:00 - - - - - - - -
15.10.2018 18:00:00 - - - - - - - -
15.10.2018 17:00:00 19,4 17,4 21 11 NW 1017,7 4,0 0
15.10.2018 16:00:00 - - - - - - - -
15.10.2018 15:00:00 - - - - - - - -
15.10.2018 14:00:00 19,0 17,8 21 11 WNW 1017,9 6 0
15.10.2018 13:00:00 - - - - - - - -
15.10.2018 12:00:00 - - - - - - - -
15.10.2018 11:00:00 18,6 18,0 16 9 NW 1018,4 5 0
15.10.2018 10:00:00 - - - - - - - -
15.10.2018 09:00:00 - - - - - - - -
15.10.2018 08:00:00 18,4 17,4 15 8 WNW 1017,5 6 -
15.10.2018 07:00:00 - - - - - - - -
15.10.2018 06:00:00 - - - - - - - -
15.10.2018 05:00:00 19,0 17,5 9 5 SW 1017,6 6 -
15.10.2018 04:00:00 - - - - - - - -
15.10.2018 03:00:00 - - - - - - - -
15.10.2018 02:00:00 19,6 16,8 4 2 S 1017,8 7 -
15.10.2018 01:00:00 - - - - - - - -
15.10.2018 00:00:00 - - - - - - - -
14.10.2018 23:00:00 20,0 17,0 4 2 SSW 1018,2 7 -
14.10.2018 22:00:00 - - - - - - - -
14.10.2018 21:00:00 - - - - - - - -
14.10.2018 20:00:00 20,2 16,8 11 6 E 1017,9 8 -
14.10.2018 19:00:00 - - - - - - - -
14.10.2018 18:00:00 - - - - - - - -
14.10.2018 17:00:00 22,2 15,8 15 8 E 1017,8 8 42
14.10.2018 16:00:00 - - - - - - - -
14.10.2018 15:00:00 - - - - - - - -
14.10.2018 14:00:00 22,6 15,2 9 5 NE 1019,0 8 60
14.10.2018 13:00:00 - - - - - - - -
14.10.2018 12:00:00 - - - - - - - -
14.10.2018 11:00:00 21,0 15,5 8 4 N 1020,2 8 36
14.10.2018 10:00:00 - - - - - - - -
14.10.2018 09:00:00 - - - - - - - -
14.10.2018 08:00:00 16,6 12,6 15 8 SW 1020,2 6 0
14.10.2018 07:00:00 - - - - - - - -
14.10.2018 06:00:00 - - - - - - - -
14.10.2018 05:00:00 18,8 16,0 13 7 WSW 1021,3 10 -
14.10.2018 04:00:00 - - - - - - - -

tt = Température de l'air
td = dewpoint
ff = Vitesse du vent
dd = Direction du vent
ppp = reduced air pressure
vv = visibility
sd = Ensoleillement

stations d'obs. à proximité